When you browse on this site, cookies collect data to enhance your experience and personalize the content and advertising you see.
Visit our Privacy Policy to learn more. By continuing to use the site, you agree to this use of cookies and data.
  • In United Kingdom
  • List of Countries
  • For 7 days
  • Water Temperature
  • Satellite Maps
  • Weather Map
  • Weather Widgets
  • user-avatar
    Login

    Hourly Weather Vladivostok

    Today, 21 July, Sunday

    Time Temperature Precipitation Wind Pressure Humidity
    00:00 +20°C° 0 mm 3 mps 749 mmHg 99%
    01:00 +20°C° 0 mm 4 mps 749 mmHg 99%
    02:00 +20°C° 0 mm 4 mps 748 mmHg 99%
    03:00 +20°C° 0 mm 4 mps 749 mmHg 98%
    04:00 +20°C° 0 mm 4 mps 748 mmHg 98%
    05:00 +20°C° 0 mm 4 mps 748 mmHg 98%
    06:00 +20°C° 0 mm 4 mps 748 mmHg 99%
    07:00 +20°C° 0 mm 4 mps 748 mmHg 98%
    08:00 +20°C° 0 mm 4 mps 748 mmHg 97%
    09:00 +21°C° 0 mm 5 mps 748 mmHg 97%
    10:00 +21°C° 0.1 mm 5 mps 748 mmHg 96%
    11:00 +21°C° 0.1 mm 6 mps 747 mmHg 96%
    12:00 +21°C° 0.1 mm 7 mps 747 mmHg 96%
    13:00 +21°C° 0.2 mm 7 mps 747 mmHg 96%
    14:00 +20°C° 0.2 mm 6 mps 746 mmHg 97%
    15:00 +20°C° 0.2 mm 6 mps 746 mmHg 97%
    16:00 +20°C° 0.2 mm 6 mps 746 mmHg 98%
    17:00 +20°C° 0.2 mm 6 mps 745 mmHg 98%
    18:00 +20°C° 0.2 mm 6 mps 745 mmHg 98%
    19:00 +20°C° 2.1 mm 6 mps 745 mmHg 98%
    20:00 +20°C° 2.1 mm 6 mps 744 mmHg 99%
    21:00 +20°C° 2.1 mm 6 mps 744 mmHg 99%
    22:00 +20°C° 3 mm 5 mps 744 mmHg 99%
    23:00 +20°C° 3 mm 5 mps 743 mmHg 99%

    Tomorrow, 22 July, Monday

    Time Temperature Precipitation Wind Pressure Humidity
    00:00 +20°C° 3 mm 5 mps 742 mmHg 99%
    01:00 +20°C° 4 mm 4 mps 742 mmHg 99%
    02:00 +20°C° 4 mm 4 mps 741 mmHg 99%
    03:00 +21°C° 4 mm 4 mps 741 mmHg 99%
    04:00 +21°C° 6.5 mm 4 mps 740 mmHg 99%
    05:00 +21°C° 6.5 mm 4 mps 740 mmHg 99%
    06:00 +21°C° 6.5 mm 4 mps 739 mmHg 99%
    07:00 +21°C° 2.7 mm 3 mps 739 mmHg 99%
    08:00 +21°C° 2.7 mm 3 mps 739 mmHg 98%
    09:00 +20°C° 2.7 mm 3 mps 739 mmHg 98%
    10:00 +20°C° 1 mm 3 mps 739 mmHg 98%
    11:00 +20°C° 1 mm 2 mps 740 mmHg 98%
    12:00 +20°C° 1 mm 2 mps 740 mmHg 98%
    13:00 +21°C° 0.3 mm 2 mps 740 mmHg 97%
    14:00 +21°C° 0.3 mm 2 mps 740 mmHg 97%
    15:00 +21°C° 0.3 mm 2 mps 740 mmHg 97%
    16:00 +21°C° 0.1 mm 2 mps 740 mmHg 96%
    17:00 +22°C° 0.1 mm 1 mps 740 mmHg 96%
    18:00 +22°C° 0.1 mm 1 mps 741 mmHg 95%
    19:00 +22°C° 0 mm 1 mps 741 mmHg 96%
    20:00 +21°C° 0 mm 1 mps 742 mmHg 97%
    21:00 +21°C° 0 mm 1 mps 742 mmHg 98%
    22:00 +18°C° 0 mm 0 mps 742 mmHg 98%
    23:00 +18°C° 0 mm 0 mps 742 mmHg 98%

    Day after tomorrow, 23 July, Tuesday

    Time Temperature Precipitation Wind Pressure Humidity
    00:00 +18°C° 0 mm 0 mps 743 mmHg 98%
    01:00 +18°C° 0 mm 0 mps 743 mmHg 98%
    02:00 +18°C° 0 mm 0 mps 743 mmHg 98%
    03:00 +18°C° 0 mm 0 mps 743 mmHg 98%
    04:00 +18°C° 0 mm 0 mps 743 mmHg 98%
    05:00 +18°C° 0 mm 0 mps 743 mmHg 98%
    06:00 +19°C° 0 mm 0 mps 743 mmHg 98%
    07:00 +22°C° 0 mm 1 mps 743 mmHg 95%
    08:00 +23°C° 0 mm 1 mps 743 mmHg 92%
    09:00 +24°C° 0 mm 1 mps 743 mmHg 89%
    10:00 +26°C° 0 mm 2 mps 743 mmHg 83%
    11:00 +27°C° 0 mm 2 mps 742 mmHg 77%
    12:00 +28°C° 0 mm 3 mps 742 mmHg 71%
    13:00 +28°C° 0 mm 3 mps 742 mmHg 74%
    14:00 +27°C° 0 mm 4 mps 741 mmHg 76%
    15:00 +27°C° 0 mm 4 mps 741 mmHg 79%
    16:00 +26°C° 0.6 mm 4 mps 741 mmHg 84%
    17:00 +24°C° 0.6 mm 3 mps 741 mmHg 89%
    18:00 +22°C° 0.6 mm 3 mps 741 mmHg 95%
    19:00 +22°C° 1.1 mm 3 mps 742 mmHg 96%
    20:00 +21°C° 1.1 mm 2 mps 742 mmHg 97%
    21:00 +21°C° 1.1 mm 2 mps 743 mmHg 98%
    22:00 +22°C° 1.5 mm 1 mps 743 mmHg 98%
    23:00 +22°C° 1.5 mm 1 mps 743 mmHg 98%

    24 July, Wednesday

    Time Temperature Precipitation Wind Pressure Humidity
    00:00 +20°C° 1.5 mm 0 mps 743 mmHg 98%
    01:00 +22°C° 0.4 mm 1 mps 743 mmHg 98%
    02:00 +21°C° 0.4 mm 2 mps 743 mmHg 98%
    03:00 +21°C° 0.4 mm 2 mps 743 mmHg 98%
    04:00 +21°C° 0.2 mm 2 mps 743 mmHg 98%
    05:00 +21°C° 0.2 mm 1 mps 743 mmHg 97%
    06:00 +21°C° 0.2 mm 1 mps 743 mmHg 97%
    07:00 +21°C° 0.1 mm 1 mps 743 mmHg 97%
    08:00 +22°C° 0.1 mm 1 mps 743 mmHg 97%
    09:00 +22°C° 0.1 mm 1 mps 743 mmHg 97%
    10:00 +22°C° 0 mm 1 mps 743 mmHg 96%
    11:00 +23°C° 0 mm 1 mps 742 mmHg 95%
    12:00 +23°C° 0 mm 2 mps 742 mmHg 94%
    13:00 +23°C° 0 mm 2 mps 742 mmHg 91%
    14:00 +24°C° 0 mm 2 mps 742 mmHg 88%
    15:00 +24°C° 0 mm 3 mps 742 mmHg 85%
    16:00 +22°C° 0 mm 3 mps 742 mmHg 88%
    17:00 +22°C° 0 mm 3 mps 741 mmHg 90%
    18:00 +21°C° 0 mm 3 mps 741 mmHg 93%
    19:00 +21°C° 0 mm 2 mps 742 mmHg 95%
    20:00 +20°C° 0 mm 2 mps 742 mmHg 97%
    21:00 +20°C° 0 mm 2 mps 743 mmHg 98%
    22:00 +20°C° 0 mm 2 mps 743 mmHg 98%
    23:00 +20°C° 0 mm 2 mps 743 mmHg 98%

    25 July, Thursday

    Time Temperature Precipitation Wind Pressure Humidity
    00:00 +21°C° 0 mm 1 mps 743 mmHg 98%
    01:00 +21°C° 0 mm 1 mps 743 mmHg 98%
    02:00 +21°C° 0 mm 1 mps 743 mmHg 99%
    03:00 +21°C° 0 mm 1 mps 743 mmHg 99%
    04:00 +20°C° 0 mm 2 mps 743 mmHg 98%
    05:00 +20°C° 0 mm 2 mps 743 mmHg 98%
    06:00 +21°C° 0 mm 2 mps 743 mmHg 98%
    07:00 +21°C° 0 mm 2 mps 744 mmHg 96%
    08:00 +23°C° 0 mm 2 mps 744 mmHg 94%
    09:00 +23°C° 0 mm 2 mps 744 mmHg 92%
    10:00 +22°C° 0 mm 3 mps 744 mmHg 90%
    11:00 +24°C° 0 mm 3 mps 744 mmHg 88%
    12:00 +24°C° 0 mm 3 mps 744 mmHg 87%
    13:00 +24°C° 0 mm 3 mps 743 mmHg 88%
    14:00 +22°C° 0 mm 3 mps 743 mmHg 90%
    15:00 +22°C° 0 mm 3 mps 743 mmHg 92%
    16:00 +21°C° 0.1 mm 4 mps 743 mmHg 94%
    17:00 +21°C° 0.1 mm 4 mps 743 mmHg 96%
    18:00 +20°C° 0.1 mm 5 mps 743 mmHg 98%
    19:00 +20°C° 0.2 mm 5 mps 743 mmHg 98%
    20:00 +20°C° 0.2 mm 5 mps 743 mmHg 98%
    21:00 +20°C° 0.2 mm 5 mps 744 mmHg 99%
    22:00 +20°C° 0.3 mm 5 mps 743 mmHg 99%
    23:00 +19°C° 0.3 mm 5 mps 743 mmHg 99%

    26 July, Friday

    Time Temperature Precipitation Wind Pressure Humidity
    00:00 +19°C° 0.3 mm 4 mps 743 mmHg 99%
    01:00 +19°C° 0.6 mm 4 mps 742 mmHg 99%
    02:00 +19°C° 0.6 mm 4 mps 742 mmHg 99%
    03:00 +19°C° 0.6 mm 4 mps 742 mmHg 99%
    04:00 +19°C° 0.3 mm 3 mps 742 mmHg 99%
    05:00 +19°C° 0.3 mm 2 mps 741 mmHg 99%
    06:00 +19°C° 0.3 mm 2 mps 741 mmHg 99%
    07:00 +20°C° 0.1 mm 2 mps 741 mmHg 98%
    08:00 +21°C° 0.1 mm 2 mps 741 mmHg 96%
    09:00 +23°C° 0.1 mm 2 mps 741 mmHg 94%
    10:00 +23°C° 0 mm 2 mps 741 mmHg 93%
    11:00 +23°C° 0 mm 2 mps 741 mmHg 92%
    12:00 +23°C° 0 mm 2 mps 741 mmHg 91%
    13:00 +24°C° 0 mm 2 mps 741 mmHg 87%
    14:00 +25°C° 0 mm 2 mps 740 mmHg 82%
    15:00 +26°C° 0 mm 2 mps 740 mmHg 78%
    16:00 +25°C° 0.4 mm 2 mps 740 mmHg 85%
    17:00 +25°C° 0.4 mm 2 mps 741 mmHg 91%
    18:00 +24°C° 0.4 mm 2 mps 741 mmHg 97%
    19:00 +23°C° 1 mm 2 mps 741 mmHg 98%
    20:00 +23°C° 1 mm 2 mps 742 mmHg 98%
    21:00 +21°C° 1 mm 2 mps 742 mmHg 99%
    22:00 +22°C° 0.1 mm 1 mps 742 mmHg 99%
    23:00 +22°C° 0.1 mm 1 mps 742 mmHg 99%
    Show more